Location: U-46 Planetarium
(42.0300°N, 88.2740°W)
Time: 10:52:57
(UTC-05:00)

SKYMED 2 - Pass Details

Date: 16 December 2017
Orbit: 621 x 623 km, 97.9° (Epoch: 22 July)

Event Time Altitude Azimuth Distance (km) Brightness Sun altitude
Rises 16:05:56 0° 55° (NE) 2,909 6.3 1.8°
Enters shadow 17:21:39 -43° 3° (N) 9,533 9.5 -10.6°
Maximum altitude 17:46:04 52° 100° (E) 783 3.7 -14.9°
